Location: Bord�res
(43.2000°N, 0.2167°W)
Time: 11:48:56
(UTC+00:00)

Cosmos 1844 Rocket - Pass Details

Date: 03 March 2021
Orbit: 826 x 843 km, 71.0° (Epoch: 20 April)

Event Time Altitude Azimuth Distance (km) Brightness Sun altitude
Rises 20:06:32 0° 328° (NNW) 3,372 6.5 -25.0°
Reaches altitude 10° 20:09:04 10° 322° (NW) 2,434 5.8 -25.4°
Maximum altitude 20:14:16 41° 253° (WSW) 1,176 3.8 -26.4°
Enters shadow 20:18:04 17° 191° (SSW) 1,954 4.5 -27.0°
